Time,TemperatureF,DewpointF,PressureIn,WindDirection,WindDirectionDegrees,WindSpeedMPH,WindSpeedGustMPH,Humidity,HourlyPrecipIn,Conditions,Clouds,dailyrainin,SoftwareType,DateUTC
2013-05-09 00:00:00,53.3,47.3,29.59,NNW,338,0.0,3.0,80,0.00,,,0.00,VWS V14.01,2013-05-09 07:00:00,
2013-05-09 00:03:00,51.3,45.0,29.69,North,349,3.0,10.0,79,0.00,,,0.00,VWS V14.01,2013-05-09 07:03:00,
2013-05-09 00:08:00,51.3,45.0,29.69,North,350,4.0,10.0,79,0.00,,,0.00,VWS V14.01,2013-05-09 07:08:00,
2013-05-09 00:13:00,51.3,45.0,29.69,North,350,3.0,10.0,79,0.00,,,0.00,VWS V14.01,2013-05-09 07:13:00,
2013-05-09 00:18:00,51.2,44.9,29.69,North,350,0.0,10.0,79,0.00,,,0.00,VWS V14.01,2013-05-09 07:18:00,
2013-05-09 00:23:00,51.2,44.9,29.69,North,349,0.0,10.0,79,0.00,,,0.00,VWS V14.01,2013-05-09 07:23:00,
2013-05-09 00:28:00,51.3,45.0,29.69,North,349,0.0,10.0,79,0.00,,,0.00,VWS V14.01,2013-05-09 07:28:00,
2013-05-09 00:30:00,53.0,47.0,29.59,NNW,338,1.0,3.0,80,0.00,,,0.00,VWS V14.01,2013-05-09 07:30:00,
2013-05-09 00:33:00,51.3,45.0,29.69,North,349,2.0,10.0,79,0.00,,,0.00,VWS V14.01,2013-05-09 07:33:00,
2013-05-09 00:38:00,51.3,45.0,29.69,North,350,1.0,10.0,79,0.00,,,0.00,VWS V14.01,2013-05-09 07:38:00,
2013-05-09 00:43:00,51.2,44.9,29.69,North,350,2.0,10.0,79,0.00,,,0.00,VWS V14.01,2013-05-09 07:43:00,
2013-05-09 00:48:00,51.1,44.8,29.70,North,349,0.0,10.0,79,0.00,,,0.00,VWS V14.01,2013-05-09 07:48:00,
2013-05-09 00:53:00,51.0,45.1,29.69,North,350,1.0,10.0,80,0.00,,,0.00,VWS V14.01,2013-05-09 07:53:00,
2013-05-09 00:58:00,51.0,45.1,29.70,North,349,1.0,10.0,80,0.00,,,0.00,VWS V14.01,2013-05-09 07:58:00,
2013-05-09 01:00:00,52.8,47.1,29.59,NNW,338,1.0,2.0,81,0.00,,,0.00,VWS V14.01,2013-05-09 08:00:00,
2013-05-09 01:03:00,51.0,45.1,29.70,North,349,1.0,10.0,80,0.00,,,0.00,VWS V14.01,2013-05-09 08:03:00,
2013-05-09 01:08:00,50.9,45.0,29.70,North,350,1.0,10.0,80,0.00,,,0.00,VWS V14.01,2013-05-09 08:08:00,
2013-05-09 01:13:00,50.9,45.0,29.70,North,349,1.0,10.0,80,0.00,,,0.00,VWS V14.01,2013-05-09 08:13:00,
2013-05-09 01:18:00,50.8,44.9,29.70,North,349,4.0,10.0,80,0.00,,,0.00,VWS V14.01,2013-05-09 08:18:00,
2013-05-09 01:23:00,50.8,44.9,29.70,North,349,1.0,10.0,80,0.00,,,0.00,VWS V14.01,2013-05-09 08:23:00,
2013-05-09 01:28:00,50.8,44.9,29.70,North,0,3.0,10.0,80,0.00,,,0.00,VWS V14.01,2013-05-09 08:28:00,
2013-05-09 01:30:00,52.3,47.0,29.59,NNW,338,1.0,3.0,82,0.00,,,0.00,VWS V14.01,2013-05-09 08:30:00,
2013-05-09 01:33:00,50.8,44.9,29.70,North,0,1.0,10.0,80,0.00,,,0.00,VWS V14.01,2013-05-09 08:33:00,
2013-05-09 01:38:00,50.8,44.9,29.69,North,0,1.0,10.0,80,0.00,,,0.00,VWS V14.01,2013-05-09 08:38:00,
2013-05-09 01:43:00,50.7,44.8,29.70,North,358,1.0,10.0,80,0.00,,,0.00,VWS V14.01,2013-05-09 08:43:00,
2013-05-09 01:48:00,50.7,44.8,29.69,North,358,2.0,10.0,80,0.00,,,0.00,VWS V14.01,2013-05-09 08:48:00,
2013-05-09 01:53:00,50.7,44.8,29.69,North,358,0.0,10.0,80,0.00,,,0.00,VWS V14.01,2013-05-09 08:53:00,
2013-05-09 01:58:00,50.7,44.8,29.69,North,358,2.0,10.0,80,0.00,,,0.00,VWS V14.01,2013-05-09 08:58:00,
2013-05-09 02:00:00,51.9,46.6,29.60,NNW,338,1.0,3.0,82,0.00,,,0.00,VWS V14.01,2013-05-09 09:00:00,
2013-05-09 02:03:00,50.7,44.8,29.69,North,358,0.0,10.0,80,0.00,,,0.00,VWS V14.01,2013-05-09 09:03:00,
2013-05-09 02:08:00,50.7,44.8,29.68,North,358,0.0,10.0,80,0.00,,,0.00,VWS V14.01,2013-05-09 09:08:00,
2013-05-09 02:13:00,50.6,45.0,29.69,North,358,1.0,10.0,81,0.00,,,0.00,VWS V14.01,2013-05-09 09:13:00,
2013-05-09 02:18:00,50.6,44.7,29.69,North,358,4.0,10.0,80,0.00,,,0.00,VWS V14.01,2013-05-09 09:18:00,
2013-05-09 02:23:00,50.6,44.7,29.69,North,358,1.0,10.0,80,0.00,,,0.00,VWS V14.01,2013-05-09 09:23:00,
2013-05-09 02:28:00,50.6,44.7,29.68,North,358,1.0,10.0,80,0.00,,,0.00,VWS V14.01,2013-05-09 09:28:00,
2013-05-09 02:30:00,51.6,46.9,29.60,NNW,338,1.0,3.0,84,0.00,,,0.00,VWS V14.01,2013-05-09 09:30:00,
2013-05-09 02:33:00,50.6,44.7,29.68,North,357,1.0,10.0,80,0.00,,,0.00,VWS V14.01,2013-05-09 09:33:00,
2013-05-09 02:38:00,50.6,44.7,29.68,North,357,0.0,10.0,80,0.00,,,0.00,VWS V14.01,2013-05-09 09:38:00,
2013-05-09 02:43:00,50.5,44.6,29.68,North,357,0.0,10.0,80,0.00,,,0.00,VWS V14.01,2013-05-09 09:43:00,
2013-05-09 02:48:00,50.5,44.9,29.68,North,357,0.0,10.0,81,0.00,,,0.00,VWS V14.01,2013-05-09 09:48:00,
2013-05-09 02:53:00,50.5,44.9,29.68,North,357,0.0,10.0,81,0.00,,,0.00,VWS V14.01,2013-05-09 09:53:00,
2013-05-09 02:58:00,50.4,44.8,29.69,North,357,1.0,10.0,81,0.00,,,0.00,VWS V14.01,2013-05-09 09:58:00,
2013-05-09 03:00:00,51.2,46.5,29.60,NNW,338,1.0,5.0,84,0.00,,,0.00,VWS V14.01,2013-05-09 10:00:00,
2013-05-09 03:03:00,50.3,44.7,29.69,North,357,0.0,10.0,81,0.00,,,0.00,VWS V14.01,2013-05-09 10:03:00,
2013-05-09 03:08:00,50.4,44.8,29.69,North,356,1.0,10.0,81,0.00,,,0.00,VWS V14.01,2013-05-09 10:08:00,
2013-05-09 03:13:00,50.3,44.7,29.68,North,354,3.0,10.0,81,0.00,,,0.00,VWS V14.01,2013-05-09 10:13:00,
2013-05-09 03:18:00,50.4,44.8,29.68,North,352,3.0,10.0,81,0.00,,,0.00,VWS V14.01,2013-05-09 10:18:00,
2013-05-09 03:23:00,50.5,45.2,29.68,North,349,1.0,10.0,82,0.00,,,0.00,VWS V14.01,2013-05-09 10:23:00,
2013-05-09 03:28:00,50.5,45.2,29.68,North,349,0.0,10.0,82,0.00,,,0.00,VWS V14.01,2013-05-09 10:28:00,
2013-05-09 03:30:00,51.1,46.4,29.60,NNW,338,2.0,5.0,84,0.00,,,0.00,VWS V14.01,2013-05-09 10:30:00,
2013-05-09 03:33:00,50.4,44.8,29.68,North,349,3.0,10.0,81,0.00,,,0.00,VWS V14.01,2013-05-09 10:33:00,
2013-05-09 03:38:00,50.5,45.2,29.68,North,349,5.0,10.0,82,0.00,,,0.00,VWS V14.01,2013-05-09 10:38:00,
2013-05-09 03:43:00,50.5,44.9,29.68,North,349,2.0,10.0,81,0.00,,,0.00,VWS V14.01,2013-05-09 10:43:00,
2013-05-09 03:48:00,50.5,45.2,29.68,North,349,2.0,10.0,82,0.00,,,0.00,VWS V14.01,2013-05-09 10:48:00,
2013-05-09 03:54:00,50.4,45.1,29.68,NNW,348,3.0,10.0,82,0.00,,,0.00,VWS V14.01,2013-05-09 10:54:00,
2013-05-09 03:59:00,50.4,45.1,29.68,North,349,2.0,10.0,82,0.00,,,0.00,VWS V14.01,2013-05-09 10:59:00,
2013-05-09 04:00:00,50.9,46.6,29.60,NNW,338,2.0,4.0,85,0.00,,,0.00,VWS V14.01,2013-05-09 11:00:00,
2013-05-09 04:04:00,50.3,44.7,29.68,NNW,329,3.0,10.0,81,0.00,,,0.00,VWS V14.01,2013-05-09 11:04:00,
2013-05-09 04:09:00,50.3,45.0,29.67,NNW,328,2.0,10.0,82,0.00,,,0.00,VWS V14.01,2013-05-09 11:09:00,
2013-05-09 04:14:00,50.3,45.0,29.68,NNW,327,1.0,10.0,82,0.00,,,0.00,VWS V14.01,2013-05-09 11:14:00,
2013-05-09 04:19:00,50.3,45.0,29.67,NNW,327,3.0,10.0,82,0.00,,,0.00,VWS V14.01,2013-05-09 11:19:00,
2013-05-09 04:24:00,50.2,44.9,29.67,NNW,327,1.0,10.0,82,0.00,,,0.00,VWS V14.01,2013-05-09 11:24:00,
2013-05-09 04:29:00,50.2,44.9,29.67,NNW,327,1.0,10.0,82,0.00,,,0.00,VWS V14.01,2013-05-09 11:29:00,
2013-05-09 04:30:00,50.6,46.3,29.61,NNW,338,1.0,4.0,85,0.00,,,0.00,VWS V14.01,2013-05-09 11:30:00,
2013-05-09 04:34:00,50.1,44.8,29.68,NNW,327,2.0,10.0,82,0.00,,,0.00,VWS V14.01,2013-05-09 11:34:00,
2013-05-09 04:39:00,50.1,44.8,29.68,NNW,327,2.0,10.0,82,0.00,,,0.00,VWS V14.01,2013-05-09 11:39:00,
2013-05-09 04:44:00,50.1,44.8,29.68,NNW,328,3.0,10.0,82,0.00,,,0.00,VWS V14.01,2013-05-09 11:44:00,
2013-05-09 04:49:00,50.1,44.8,29.68,NNW,327,2.0,10.0,82,0.00,,,0.00,VWS V14.01,2013-05-09 11:49:00,
2013-05-09 04:54:00,50.0,44.7,29.68,NNW,327,2.0,10.0,82,0.00,,,0.00,VWS V14.01,2013-05-09 11:54:00,
2013-05-09 04:59:00,50.0,44.7,29.68,NNW,327,3.0,10.0,82,0.00,,,0.00,VWS V14.01,2013-05-09 11:59:00,
2013-05-09 05:00:00,50.6,46.3,29.61,NNW,338,0.0,1.0,85,0.00,,,0.00,VWS V14.01,2013-05-09 12:00:00,
2013-05-09 05:04:00,50.1,44.8,29.67,NNW,327,4.0,10.0,82,0.00,,,0.00,VWS V14.01,2013-05-09 12:04:00,
2013-05-09 05:09:00,50.0,44.7,29.67,NNW,327,1.0,10.0,82,0.00,,,0.00,VWS V14.01,2013-05-09 12:09:00,
2013-05-09 05:14:00,49.9,44.6,29.67,NNW,327,1.0,10.0,82,0.00,,,0.00,VWS V14.01,2013-05-09 12:14:00,
2013-05-09 05:19:00,49.9,44.6,29.67,NNW,327,0.0,10.0,82,0.00,,,0.00,VWS V14.01,2013-05-09 12:19:00,
2013-05-09 05:24:00,49.9,44.6,29.67,NNW,327,2.0,10.0,82,0.00,,,0.00,VWS V14.01,2013-05-09 12:24:00,
2013-05-09 05:29:00,50.0,44.7,29.68,NNW,327,0.0,10.0,82,0.00,,,0.00,VWS V14.01,2013-05-09 12:29:00,
2013-05-09 05:30:00,50.8,46.5,29.61,NNW,338,0.0,0.0,85,0.00,,,0.00,VWS V14.01,2013-05-09 12:30:00,
2013-05-09 05:34:00,49.8,44.5,29.67,NNW,327,0.0,10.0,82,0.00,,,0.00,VWS V14.01,2013-05-09 12:34:00,
2013-05-09 05:39:00,49.8,44.5,29.67,NNW,327,0.0,10.0,82,0.00,,,0.00,VWS V14.01,2013-05-09 12:39:00,
2013-05-09 05:44:00,49.7,44.4,29.67,NNW,327,0.0,10.0,82,0.00,,,0.00,VWS V14.01,2013-05-09 12:44:00,
2013-05-09 05:49:00,49.6,44.3,29.67,NNW,327,0.0,10.0,82,0.00,,,0.00,VWS V14.01,2013-05-09 12:49:00,
2013-05-09 05:54:00,49.6,44.3,29.68,NNW,327,0.0,10.0,82,0.00,,,0.00,VWS V14.01,2013-05-09 12:54:00,
2013-05-09 05:59:00,49.5,44.2,29.68,NNW,327,0.0,10.0,82,0.00,,,0.00,VWS V14.01,2013-05-09 12:59:00,
2013-05-09 06:00:00,51.2,46.5,29.62,NNW,338,0.0,3.0,84,0.00,,,0.00,VWS V14.01,2013-05-09 13:00:00,
2013-05-09 06:04:00,49.3,44.0,29.68,NNW,327,0.0,10.0,82,0.00,,,0.00,VWS V14.01,2013-05-09 13:04:00,
2013-05-09 06:09:00,49.2,44.3,29.68,NNW,327,0.0,10.0,83,0.00,,,0.00,VWS V14.01,2013-05-09 13:09:00,
2013-05-09 06:14:00,49.2,44.3,29.68,NNW,327,0.0,10.0,83,0.00,,,0.00,VWS V14.01,2013-05-09 13:14:00,
2013-05-09 06:19:00,49.3,44.4,29.68,NNW,327,1.0,10.0,83,0.00,,,0.00,VWS V14.01,2013-05-09 13:19:00,
2013-05-09 06:24:00,49.4,44.5,29.68,NNW,327,0.0,10.0,83,0.00,,,0.00,VWS V14.01,2013-05-09 13:24:00,
2013-05-09 06:29:00,49.5,44.6,29.68,NNW,327,0.0,10.0,83,0.00,,,0.00,VWS V14.01,2013-05-09 13:29:00,
2013-05-09 06:30:00,51.5,46.8,29.63,NNW,338,0.0,3.0,84,0.00,,,0.00,VWS V14.01,2013-05-09 13:30:00,
2013-05-09 06:34:00,49.6,44.7,29.68,NNW,327,0.0,10.0,83,0.00,,,0.00,VWS V14.01,2013-05-09 13:34:00,
2013-05-09 06:39:00,49.7,44.8,29.68,NNW,327,0.0,10.0,83,0.00,,,0.00,VWS V14.01,2013-05-09 13:39:00,
2013-05-09 06:44:00,49.7,44.8,29.68,NNW,327,0.0,10.0,83,0.00,,,0.00,VWS V14.01,2013-05-09 13:44:00,
2013-05-09 06:49:00,49.7,44.8,29.69,NNW,327,0.0,10.0,83,0.00,,,0.00,VWS V14.01,2013-05-09 13:49:00,
2013-05-09 06:54:00,49.9,45.0,29.69,NNW,327,0.0,10.0,83,0.00,,,0.00,VWS V14.01,2013-05-09 13:54:00,
2013-05-09 06:59:00,50.1,45.2,29.69,NNW,327,2.0,10.0,83,0.00,,,0.00,VWS V14.01,2013-05-09 13:59:00,
2013-05-09 07:00:00,51.6,46.6,29.63,NNW,338,0.0,3.0,83,0.00,,,0.00,VWS V14.01,2013-05-09 14:00:00,
2013-05-09 07:04:00,50.4,45.1,29.70,NNW,327,2.0,10.0,82,0.00,,,0.00,VWS V14.01,2013-05-09 14:04:00,
2013-05-09 07:09:00,50.5,45.2,29.70,NNW,327,0.0,10.0,82,0.00,,,0.00,VWS V14.01,2013-05-09 14:09:00,
2013-05-09 07:14:00,50.7,45.4,29.70,NNW,327,1.0,10.0,82,0.00,,,0.00,VWS V14.01,2013-05-09 14:14:00,
2013-05-09 07:19:00,51.1,45.5,29.70,NNW,327,2.0,10.0,81,0.00,,,0.00,VWS V14.01,2013-05-09 14:19:00,
2013-05-09 07:24:00,51.3,45.7,29.70,NNW,327,2.0,10.0,81,0.00,,,0.00,VWS V14.01,2013-05-09 14:24:00,
2013-05-09 07:29:00,51.5,45.9,29.70,NNW,327,3.0,10.0,81,0.00,,,0.00,VWS V14.01,2013-05-09 14:29:00,
2013-05-09 07:30:00,51.7,46.7,29.62,NNW,338,0.0,3.0,83,0.00,,,0.00,VWS V14.01,2013-05-09 14:30:00,
2013-05-09 07:34:00,51.5,45.9,29.69,NNW,327,3.0,10.0,81,0.00,,,0.00,VWS V14.01,2013-05-09 14:34:00,
2013-05-09 07:39:00,51.7,45.7,29.70,NNW,327,3.0,10.0,80,0.00,,,0.00,VWS V14.01,2013-05-09 14:39:00,
2013-05-09 07:44:00,51.7,45.7,29.70,NNW,332,2.0,10.0,80,0.00,,,0.00,VWS V14.01,2013-05-09 14:44:00,
2013-05-09 07:55:00,50.6,45.0,29.70,NNW,338,1.0,5.0,81,0.00,,,0.00,VWS V14.01,2013-05-09 14:55:00,
2013-05-09 08:00:00,52.1,45.8,29.71,NNW,335,1.0,4.0,79,0.00,,,0.00,VWS V14.01,2013-05-09 15:00:00,
2013-05-09 08:05:00,52.3,45.7,29.71,NNW,334,4.0,6.0,78,0.00,,,0.00,VWS V14.01,2013-05-09 15:05:00,
2013-05-09 08:10:00,52.4,45.8,29.70,NNW,334,3.0,6.0,78,0.00,,,0.00,VWS V14.01,2013-05-09 15:10:00,
2013-05-09 08:15:00,52.8,46.1,29.71,NNW,334,2.0,6.0,78,0.00,,,0.00,VWS V14.01,2013-05-09 15:15:00,
2013-05-09 08:20:00,53.0,46.3,29.71,NNW,338,1.0,6.0,78,0.00,,,0.00,VWS V14.01,2013-05-09 15:20:00,
2013-05-09 08:25:00,53.4,46.0,29.71,NNW,335,2.0,6.0,76,0.00,,,0.00,VWS V14.01,2013-05-09 15:25:00,
2013-05-09 08:30:00,53.6,45.9,29.72,NNW,335,1.0,6.0,75,0.00,,,0.00,VWS V14.01,2013-05-09 15:30:00,
2013-05-09 08:35:00,53.8,46.1,29.72,NNW,335,3.0,6.0,75,0.00,,,0.00,VWS V14.01,2013-05-09 15:35:00,
2013-05-09 08:40:00,54.2,46.1,29.71,NNW,336,3.0,6.0,74,0.00,,,0.00,VWS V14.01,2013-05-09 15:40:00,
2013-05-09 08:45:00,54.3,46.2,29.71,NNW,336,2.0,6.0,74,0.00,,,0.00,VWS V14.01,2013-05-09 15:45:00,
2013-05-09 08:50:00,54.6,46.5,29.71,NNW,336,2.0,6.0,74,0.00,,,0.00,VWS V14.01,2013-05-09 15:50:00,
2013-05-09 08:55:00,54.9,46.4,29.72,NNW,336,3.0,6.0,73,0.00,,,0.00,VWS V14.01,2013-05-09 15:55:00,
2013-05-09 09:00:00,55.2,46.3,29.72,NNW,334,2.0,6.0,72,0.00,,,0.00,VWS V14.01,2013-05-09 16:00:00,
2013-05-09 09:05:00,55.3,46.4,29.72,NNW,332,4.0,6.0,72,0.00,,,0.00,VWS V14.01,2013-05-09 16:05:00,
2013-05-09 09:10:00,55.6,46.7,29.72,NNW,333,3.0,6.0,72,0.00,,,0.00,VWS V14.01,2013-05-09 16:10:00,
2013-05-09 09:15:00,55.9,46.7,29.72,NNW,332,4.0,6.0,71,0.00,,,0.00,VWS V14.01,2013-05-09 16:15:00,
2013-05-09 09:20:00,56.0,46.7,29.72,NNW,332,0.0,6.0,71,0.00,,,0.00,VWS V14.01,2013-05-09 16:20:00,
2013-05-09 09:25:00,56.5,47.2,29.72,NNW,337,3.0,6.0,71,0.00,,,0.00,VWS V14.01,2013-05-09 16:25:00,
2013-05-09 09:30:00,56.9,46.8,29.72,NNW,337,3.0,6.0,69,0.00,,,0.00,VWS V14.01,2013-05-09 16:30:00,
2013-05-09 09:35:00,56.9,46.8,29.72,NNW,336,3.0,6.0,69,0.00,,,0.00,VWS V14.01,2013-05-09 16:35:00,
2013-05-09 09:40:00,57.0,46.9,29.72,NNW,336,3.0,6.0,69,0.00,,,0.00,VWS V14.01,2013-05-09 16:40:00,
2013-05-09 09:45:00,57.3,47.2,29.72,NNW,336,1.0,6.0,69,0.00,,,0.00,VWS V14.01,2013-05-09 16:45:00,
2013-05-09 09:50:00,57.9,47.8,29.72,NNW,336,2.0,6.0,69,0.00,,,0.00,VWS V14.01,2013-05-09 16:50:00,
2013-05-09 09:55:00,58.8,47.9,29.72,NNW,336,0.0,6.0,67,0.00,,,0.00,VWS V14.01,2013-05-09 16:55:00,
2013-05-09 10:00:00,59.7,47.9,29.72,NNW,339,3.0,6.0,65,0.00,,,0.00,VWS V14.01,2013-05-09 17:00:00,
2013-05-09 10:05:00,60.6,48.0,29.72,NNW,338,4.0,6.0,63,0.00,,,0.00,VWS V14.01,2013-05-09 17:05:00,
2013-05-09 10:10:00,61.3,48.2,29.72,NNW,330,3.0,6.0,62,0.00,,,0.00,VWS V14.01,2013-05-09 17:10:00,
2013-05-09 10:15:00,61.8,48.2,29.72,North,353,1.0,6.0,61,0.00,,,0.00,VWS V14.01,2013-05-09 17:15:00,
2013-05-09 10:20:00,62.0,48.0,29.71,North,353,0.0,6.0,60,0.00,,,0.00,VWS V14.01,2013-05-09 17:20:00,
2013-05-09 10:25:00,62.0,48.0,29.71,North,353,1.0,6.0,60,0.00,,,0.00,VWS V14.01,2013-05-09 17:25:00,
2013-05-09 10:30:00,62.4,48.8,29.71,North,353,3.0,6.0,61,0.00,,,0.00,VWS V14.01,2013-05-09 17:30:00,
2013-05-09 10:35:00,63.0,48.9,29.71,North,351,1.0,6.0,60,0.00,,,0.00,VWS V14.01,2013-05-09 17:35:00,
2013-05-09 10:40:00,63.3,48.7,29.71,North,351,1.0,6.0,59,0.00,,,0.00,VWS V14.01,2013-05-09 17:40:00,
2013-05-09 10:45:00,63.7,48.7,29.71,North,351,3.0,6.0,58,0.00,,,0.00,VWS V14.01,2013-05-09 17:45:00,
2013-05-09 10:50:00,64.1,48.6,29.71,NNW,336,4.0,6.0,57,0.00,,,0.00,VWS V14.01,2013-05-09 17:50:00,
2013-05-09 10:55:00,64.3,48.8,29.71,North,350,3.0,6.0,57,0.00,,,0.00,VWS V14.01,2013-05-09 17:55:00,
2013-05-09 11:00:00,64.6,48.6,29.71,North,351,2.0,7.0,56,0.00,,,0.00,VWS V14.01,2013-05-09 18:00:00,
2013-05-09 11:05:00,65.1,49.0,29.71,North,353,4.0,7.0,56,0.00,,,0.00,VWS V14.01,2013-05-09 18:05:00,
2013-05-09 11:10:00,65.1,49.0,29.71,NNW,347,2.0,7.0,56,0.00,,,0.00,VWS V14.01,2013-05-09 18:10:00,
2013-05-09 11:15:00,65.6,48.5,29.71,North,350,2.0,7.0,54,0.00,,,0.00,VWS V14.01,2013-05-09 18:15:00,
2013-05-09 11:20:00,65.9,48.8,29.71,North,358,3.0,7.0,54,0.00,,,0.00,VWS V14.01,2013-05-09 18:20:00,
2013-05-09 11:25:00,66.6,49.0,29.70,North,352,4.0,8.0,53,0.00,,,0.00,VWS V14.01,2013-05-09 18:25:00,
2013-05-09 11:30:00,66.3,48.7,29.71,North,355,2.0,8.0,53,0.00,,,0.00,VWS V14.01,2013-05-09 18:30:00,
2013-05-09 11:35:00,66.0,48.4,29.71,NNW,344,3.0,8.0,53,0.00,,,0.00,VWS V14.01,2013-05-09 18:35:00,
2013-05-09 11:40:00,66.3,48.2,29.71,North,351,5.0,8.0,52,0.00,,,0.00,VWS V14.01,2013-05-09 18:40:00,
2013-05-09 11:45:00,66.5,48.3,29.70,NNW,336,1.0,9.0,52,0.00,,,0.00,VWS V14.01,2013-05-09 18:45:00,
2013-05-09 11:51:00,66.2,48.1,29.71,NNW,347,4.0,9.0,52,0.00,,,0.00,VWS V14.01,2013-05-09 18:51:00,
2013-05-09 11:56:00,65.7,48.6,29.71,NNW,347,6.0,9.0,54,0.00,,,0.00,VWS V14.01,2013-05-09 18:56:00,
2013-05-09 12:00:00,56.2,47.7,29.69,NNW,338,2.0,8.0,73,0.00,,,0.00,VWS V14.01,2013-05-09 19:00:00,
2013-05-09 12:01:00,65.7,48.6,29.71,NNW,348,3.0,9.0,54,0.00,,,0.00,VWS V14.01,2013-05-09 19:01:00,
2013-05-09 12:06:00,66.1,49.0,29.70,North,352,4.0,9.0,54,0.00,,,0.00,VWS V14.01,2013-05-09 19:06:00,
2013-05-09 12:11:00,66.4,48.3,29.70,North,352,11.0,11.0,52,0.00,,,0.00,VWS V14.01,2013-05-09 19:11:00,
2013-05-09 12:16:00,66.5,48.3,29.70,NNW,344,4.0,11.0,52,0.00,,,0.00,VWS V14.01,2013-05-09 19:16:00,
2013-05-09 12:21:00,66.6,48.4,29.69,North,353,5.0,11.0,52,0.00,,,0.00,VWS V14.01,2013-05-09 19:21:00,
2013-05-09 12:26:00,66.2,48.6,29.69,North,352,3.0,11.0,53,0.00,,,0.00,VWS V14.01,2013-05-09 19:26:00,
2013-05-09 12:30:00,57.5,47.8,29.69,NNW,338,2.0,9.0,70,0.00,,,0.00,VWS V14.01,2013-05-09 19:30:00,
2013-05-09 12:31:00,66.1,48.5,29.70,North,350,3.0,11.0,53,0.00,,,0.00,VWS V14.01,2013-05-09 19:31:00,
2013-05-09 12:36:00,65.6,48.0,29.70,North,349,5.0,11.0,53,0.00,,,0.00,VWS V14.01,2013-05-09 19:36:00,
2013-05-09 12:41:00,65.1,47.6,29.70,North,350,6.0,11.0,53,0.00,,,0.00,VWS V14.01,2013-05-09 19:41:00,
2013-05-09 12:46:00,65.0,47.5,29.70,North,349,5.0,11.0,53,0.00,,,0.00,VWS V14.01,2013-05-09 19:46:00,
2013-05-09 12:51:00,65.0,48.0,29.70,NNW,348,6.0,11.0,54,0.00,,,0.00,VWS V14.01,2013-05-09 19:51:00,
2013-05-09 12:56:00,65.1,48.1,29.70,NNW,348,5.0,11.0,54,0.00,,,0.00,VWS V14.01,2013-05-09 19:56:00,
2013-05-09 13:00:00,60.6,48.8,29.69,NNW,338,1.0,5.0,65,0.00,,,0.00,VWS V14.01,2013-05-09 20:00:00,
2013-05-09 13:01:00,65.1,47.6,29.70,North,349,7.0,11.0,53,0.00,,,0.00,VWS V14.01,2013-05-09 20:01:00,
2013-05-09 13:06:00,65.1,48.1,29.70,NNW,348,5.0,11.0,54,0.00,,,0.00,VWS V14.01,2013-05-09 20:06:00,
2013-05-09 13:11:00,65.7,48.1,29.70,North,349,4.0,11.0,53,0.00,,,0.00,VWS V14.01,2013-05-09 20:11:00,
2013-05-09 13:16:00,66.2,48.6,29.70,NNW,348,4.0,11.0,53,0.00,,,0.00,VWS V14.01,2013-05-09 20:16:00,
2013-05-09 13:21:00,66.4,48.3,29.70,North,349,7.0,11.0,52,0.00,,,0.00,VWS V14.01,2013-05-09 20:21:00,
2013-05-09 13:26:00,66.1,48.0,29.70,NNW,335,5.0,11.0,52,0.00,,,0.00,VWS V14.01,2013-05-09 20:26:00,
2013-05-09 13:30:00,62.2,49.0,29.68,NNW,338,2.0,5.0,62,0.00,,,0.00,VWS V14.01,2013-05-09 20:30:00,
2013-05-09 13:31:00,65.5,47.9,29.70,NNW,331,4.0,11.0,53,0.00,,,0.00,VWS V14.01,2013-05-09 20:31:00,
2013-05-09 13:36:00,65.4,48.3,29.70,NW,326,7.0,11.0,54,0.00,,,0.00,VWS V14.01,2013-05-09 20:36:00,
2013-05-09 13:41:00,65.3,47.8,29.70,NW,326,6.0,11.0,53,0.00,,,0.00,VWS V14.01,2013-05-09 20:41:00,
2013-05-09 13:46:00,65.1,48.1,29.69,NW,325,8.0,11.0,54,0.00,,,0.00,VWS V14.01,2013-05-09 20:46:00,
2013-05-09 13:51:00,64.7,47.7,29.70,NW,324,5.0,11.0,54,0.00,,,0.00,VWS V14.01,2013-05-09 20:51:00,
2013-05-09 13:56:00,64.5,48.0,29.70,NW,324,3.0,11.0,55,0.00,,,0.00,VWS V14.01,2013-05-09 20:56:00,
2013-05-09 14:00:00,64.0,48.9,29.68,NNW,338,2.0,6.0,58,0.00,,,0.00,VWS V14.01,2013-05-09 21:00:00,
2013-05-09 14:01:00,64.7,48.2,29.69,NW,323,5.0,11.0,55,0.00,,,0.00,VWS V14.01,2013-05-09 21:01:00,
2013-05-09 14:06:00,64.7,48.2,29.69,NW,322,5.0,11.0,55,0.00,,,0.00,VWS V14.01,2013-05-09 21:06:00,
2013-05-09 14:11:00,64.6,47.6,29.69,NW,321,6.0,11.0,54,0.00,,,0.00,VWS V14.01,2013-05-09 21:11:00,
2013-05-09 14:16:00,64.6,48.1,29.70,NW,321,6.0,11.0,55,0.00,,,0.00,VWS V14.01,2013-05-09 21:16:00,
2013-05-09 14:21:00,64.6,47.6,29.69,NW,325,10.0,11.0,54,0.00,,,0.00,VWS V14.01,2013-05-09 21:21:00,
2013-05-09 14:26:00,64.2,47.2,29.69,NNW,327,4.0,11.0,54,0.00,,,0.00,VWS V14.01,2013-05-09 21:26:00,
2013-05-09 14:30:00,65.0,48.9,29.67,NNW,338,1.0,8.0,56,0.00,,,0.00,VWS V14.01,2013-05-09 21:30:00,
2013-05-09 14:31:00,63.9,47.4,29.69,NNW,333,4.0,11.0,55,0.00,,,0.00,VWS V14.01,2013-05-09 21:31:00,
2013-05-09 14:36:00,64.1,47.6,29.69,NW,318,8.0,11.0,55,0.00,,,0.00,VWS V14.01,2013-05-09 21:36:00,
2013-05-09 14:41:00,63.7,47.2,29.69,NW,321,7.0,11.0,55,0.00,,,0.00,VWS V14.01,2013-05-09 21:41:00,
2013-05-09 14:46:00,63.6,47.6,29.69,North,350,2.0,11.0,56,0.00,,,0.00,VWS V14.01,2013-05-09 21:46:00,
2013-05-09 14:51:00,63.6,47.6,29.68,NNW,334,6.0,11.0,56,0.00,,,0.00,VWS V14.01,2013-05-09 21:51:00,
2013-05-09 14:56:00,63.6,47.6,29.69,North,350,8.0,13.0,56,0.00,,,0.00,VWS V14.01,2013-05-09 21:56:00,
2013-05-09 15:00:00,66.7,49.5,29.66,NNW,338,2.0,6.0,54,0.00,,,0.00,VWS V14.01,2013-05-09 22:00:00,
2013-05-09 15:01:00,63.9,47.4,29.68,NNW,334,6.0,13.0,55,0.00,,,0.00,VWS V14.01,2013-05-09 22:01:00,
2013-05-09 15:06:00,64.4,48.4,29.68,NNW,333,9.0,13.0,56,0.00,,,0.00,VWS V14.01,2013-05-09 22:06:00,
2013-05-09 15:11:00,64.3,47.8,29.68,NNW,335,9.0,13.0,55,0.00,,,0.00,VWS V14.01,2013-05-09 22:11:00,
2013-05-09 15:16:00,64.1,47.6,29.68,NNW,347,5.0,13.0,55,0.00,,,0.00,VWS V14.01,2013-05-09 22:16:00,
2013-05-09 15:21:00,64.0,48.0,29.68,NNW,334,7.0,13.0,56,0.00,,,0.00,VWS V14.01,2013-05-09 22:21:00,
2013-05-09 15:26:00,64.2,48.2,29.68,NW,325,7.0,13.0,56,0.00,,,0.00,VWS V14.01,2013-05-09 22:26:00,
2013-05-09 15:30:00,68.5,51.2,29.66,NNW,338,3.0,7.0,54,0.00,,,0.00,VWS V14.01,2013-05-09 22:30:00,
2013-05-09 15:31:00,64.7,48.2,29.68,NW,326,5.0,13.0,55,0.00,,,0.00,VWS V14.01,2013-05-09 22:31:00,
2013-05-09 15:36:00,64.7,47.7,29.67,NNW,333,7.0,13.0,54,0.00,,,0.00,VWS V14.01,2013-05-09 22:36:00,
2013-05-09 15:41:00,64.5,47.5,29.67,NNW,336,5.0,13.0,54,0.00,,,0.00,VWS V14.01,2013-05-09 22:41:00,
2013-05-09 15:46:00,64.6,48.1,29.67,NW,326,6.0,13.0,55,0.00,,,0.00,VWS V14.01,2013-05-09 22:46:00,
2013-05-09 15:51:00,64.7,47.7,29.67,NNW,327,4.0,13.0,54,0.00,,,0.00,VWS V14.01,2013-05-09 22:51:00,
2013-05-09 15:56:00,64.6,48.1,29.67,NNW,344,6.0,13.0,55,0.00,,,0.00,VWS V14.01,2013-05-09 22:56:00,
2013-05-09 16:00:00,68.1,50.3,29.66,NNW,338,3.0,7.0,53,0.00,,,0.00,VWS V14.01,2013-05-09 23:00:00,
2013-05-09 16:01:00,64.7,47.7,29.67,NW,325,6.0,13.0,54,0.00,,,0.00,VWS V14.01,2013-05-09 23:01:00,
2013-05-09 16:06:00,64.5,48.0,29.66,NW,326,7.0,13.0,55,0.00,,,0.00,VWS V14.01,2013-05-09 23:06:00,
2013-05-09 16:11:00,64.5,47.5,29.66,NW,320,7.0,13.0,54,0.00,,,0.00,VWS V14.01,2013-05-09 23:11:00,
2013-05-09 16:16:00,64.8,47.8,29.66,NNW,347,6.0,13.0,54,0.00,,,0.00,VWS V14.01,2013-05-09 23:16:00,
2013-05-09 16:21:00,64.7,47.7,29.66,NNW,342,6.0,13.0,54,0.00,,,0.00,VWS V14.01,2013-05-09 23:21:00,
2013-05-09 16:26:00,64.9,47.9,29.66,North,351,6.0,13.0,54,0.00,,,0.00,VWS V14.01,2013-05-09 23:26:00,
2013-05-09 16:30:00,67.2,50.5,29.65,NNW,338,4.0,7.0,55,0.00,,,0.00,VWS V14.01,2013-05-09 23:30:00,
2013-05-09 16:31:00,65.1,47.6,29.65,NNW,341,3.0,13.0,53,0.00,,,0.00,VWS V14.01,2013-05-09 23:31:00,
2013-05-09 16:36:00,65.1,48.1,29.65,NW,325,8.0,13.0,54,0.00,,,0.00,VWS V14.01,2013-05-09 23:36:00,
2013-05-09 16:41:00,64.6,47.1,29.65,NW,319,6.0,13.0,53,0.00,,,0.00,VWS V14.01,2013-05-09 23:41:00,
2013-05-09 16:46:00,63.9,47.0,29.65,NNW,335,5.0,13.0,54,0.00,,,0.00,VWS V14.01,2013-05-09 23:46:00,
2013-05-09 16:51:00,64.0,47.5,29.65,NNW,328,5.0,13.0,55,0.00,,,0.00,VWS V14.01,2013-05-09 23:51:00,
2013-05-09 16:56:00,63.9,47.4,29.65,NW,322,7.0,13.0,55,0.00,,,0.00,VWS V14.01,2013-05-09 23:56:00,
2013-05-09 17:00:00,65.9,49.8,29.65,NNW,338,4.0,10.0,56,0.00,,,0.00,VWS V14.01,2013-05-10 00:00:00,
2013-05-09 17:01:00,64.0,48.0,29.65,NNW,348,3.0,13.0,56,0.00,,,0.00,VWS V14.01,2013-05-10 00:01:00,
2013-05-09 17:06:00,64.3,47.8,29.65,NNW,338,5.0,13.0,55,0.00,,,0.00,VWS V14.01,2013-05-10 00:06:00,
2013-05-09 17:11:00,64.3,47.8,29.65,NNW,338,10.0,13.0,55,0.00,,,0.00,VWS V14.01,2013-05-10 00:11:00,
2013-05-09 17:16:00,64.4,47.9,29.65,NNW,343,6.0,13.0,55,0.00,,,0.00,VWS V14.01,2013-05-10 00:16:00,
2013-05-09 17:21:00,64.1,47.6,29.64,NNW,346,5.0,13.0,55,0.00,,,0.00,VWS V14.01,2013-05-10 00:21:00,
2013-05-09 17:26:00,63.9,47.9,29.65,NNW,329,5.0,13.0,56,0.00,,,0.00,VWS V14.01,2013-05-10 00:26:00,
2013-05-09 17:30:00,64.5,49.0,29.64,NNW,338,5.0,8.0,57,0.00,,,0.00,VWS V14.01,2013-05-10 00:30:00,
2013-05-09 17:31:00,63.5,47.5,29.65,NNW,330,4.0,13.0,56,0.00,,,0.00,VWS V14.01,2013-05-10 00:31:00,
2013-05-09 17:36:00,63.2,47.7,29.65,North,357,3.0,13.0,57,0.00,,,0.00,VWS V14.01,2013-05-10 00:36:00,
2013-05-09 17:41:00,63.0,47.5,29.65,NNW,329,4.0,13.0,57,0.00,,,0.00,VWS V14.01,2013-05-10 00:41:00,
2013-05-09 17:46:00,62.4,47.5,29.65,NW,326,1.0,13.0,58,0.00,,,0.00,VWS V14.01,2013-05-10 00:46:00,
2013-05-09 17:51:00,62.3,47.3,29.64,NNW,328,3.0,13.0,58,0.00,,,0.00,VWS V14.01,2013-05-10 00:51:00,
2013-05-09 17:56:00,62.1,47.6,29.65,North,353,2.0,13.0,59,0.00,,,0.00,VWS V14.01,2013-05-10 00:56:00,
2013-05-09 18:00:00,63.0,48.9,29.64,NNW,338,5.0,9.0,60,0.00,,,0.00,VWS V14.01,2013-05-10 01:00:00,
2013-05-09 18:01:00,62.1,47.2,29.65,NNW,335,4.0,13.0,58,0.00,,,0.00,VWS V14.01,2013-05-10 01:01:00,
2013-05-09 18:06:00,61.9,47.0,29.65,NNW,345,5.0,15.0,58,0.00,,,0.00,VWS V14.01,2013-05-10 01:06:00,
2013-05-09 18:11:00,61.7,47.2,29.65,North,349,6.0,15.0,59,0.00,,,0.00,VWS V14.01,2013-05-10 01:11:00,
2013-05-09 18:16:00,61.4,47.0,29.65,North,5,4.0,15.0,59,0.00,,,0.00,VWS V14.01,2013-05-10 01:16:00,
2013-05-09 18:21:00,61.2,46.8,29.65,North,352,1.0,15.0,59,0.00,,,0.00,VWS V14.01,2013-05-10 01:21:00,
2013-05-09 18:26:00,61.0,47.0,29.65,NNW,347,4.0,15.0,60,0.00,,,0.00,VWS V14.01,2013-05-10 01:26:00,
2013-05-09 18:30:00,61.8,48.7,29.64,NNW,338,5.0,10.0,62,0.00,,,0.00,VWS V14.01,2013-05-10 01:30:00,
2013-05-09 18:31:00,60.7,46.8,29.65,NNW,348,6.0,15.0,60,0.00,,,0.00,VWS V14.01,2013-05-10 01:31:00,
2013-05-09 18:36:00,60.4,46.9,29.66,NNW,340,4.0,15.0,61,0.00,,,0.00,VWS V14.01,2013-05-10 01:36:00,
2013-05-09 18:41:00,60.1,46.6,29.65,NNW,337,3.0,15.0,61,0.00,,,0.00,VWS V14.01,2013-05-10 01:41:00,
2013-05-09 18:46:00,59.5,46.5,29.65,North,351,6.0,15.0,62,0.00,,,0.00,VWS V14.01,2013-05-10 01:46:00,
2013-05-09 18:51:00,59.5,46.9,29.65,North,350,3.0,15.0,63,0.00,,,0.00,VWS V14.01,2013-05-10 01:51:00,
2013-05-09 18:56:00,59.4,46.8,29.66,NNW,348,2.0,15.0,63,0.00,,,0.00,VWS V14.01,2013-05-10 01:56:00,
2013-05-09 19:00:00,58.8,47.9,29.65,NW,315,5.0,8.0,67,0.00,,,0.00,VWS V14.01,2013-05-10 02:00:00,
2013-05-09 19:01:00,59.0,46.8,29.66,NNW,345,4.0,15.0,64,0.00,,,0.00,VWS V14.01,2013-05-10 02:01:00,
2013-05-09 19:06:00,58.6,46.5,29.66,NW,321,2.0,15.0,64,0.00,,,0.00,VWS V14.01,2013-05-10 02:06:00,
2013-05-09 19:11:00,58.2,46.5,29.67,North,349,4.0,15.0,65,0.00,,,0.00,VWS V14.01,2013-05-10 02:11:00,
2013-05-09 19:16:00,57.9,46.2,29.67,NNW,330,1.0,15.0,65,0.00,,,0.00,VWS V14.01,2013-05-10 02:16:00,
2013-05-09 19:21:00,57.3,45.7,29.67,NNW,336,2.0,15.0,65,0.00,,,0.00,VWS V14.01,2013-05-10 02:21:00,
2013-05-09 19:26:00,56.5,45.3,29.67,NW,316,3.0,15.0,66,0.00,,,0.00,VWS V14.01,2013-05-10 02:26:00,
2013-05-09 19:30:00,56.9,46.5,29.65,NNW,338,4.0,9.0,68,0.00,,,0.00,VWS V14.01,2013-05-10 02:30:00,
2013-05-09 19:31:00,55.6,44.8,29.67,NNW,337,4.0,15.0,67,0.00,,,0.00,VWS V14.01,2013-05-10 02:31:00,
2013-05-09 19:36:00,54.9,44.9,29.68,NNW,336,3.0,15.0,69,0.00,,,0.00,VWS V14.01,2013-05-10 02:36:00,
2013-05-09 19:41:00,54.4,44.8,29.68,NW,326,3.0,15.0,70,0.00,,,0.00,VWS V14.01,2013-05-10 02:41:00,
2013-05-09 19:46:00,54.1,44.5,29.68,NNW,343,5.0,15.0,70,0.00,,,0.00,VWS V14.01,2013-05-10 02:46:00,
2013-05-09 19:51:00,53.7,44.5,29.68,NNW,347,5.0,15.0,71,0.00,,,0.00,VWS V14.01,2013-05-10 02:51:00,
2013-05-09 19:56:00,53.3,44.5,29.68,NW,324,4.0,15.0,72,0.00,,,0.00,VWS V14.01,2013-05-10 02:56:00,
2013-05-09 20:00:00,55.8,46.2,29.65,NW,315,5.0,10.0,70,0.00,,,0.00,VWS V14.01,2013-05-10 03:00:00,
2013-05-09 20:01:00,53.2,44.8,29.68,NW,324,2.0,15.0,73,0.00,,,0.00,VWS V14.01,2013-05-10 03:01:00,
2013-05-09 20:06:00,53.1,44.7,29.68,NW,324,3.0,15.0,73,0.00,,,0.00,VWS V14.01,2013-05-10 03:06:00,
2013-05-09 20:12:00,52.9,44.8,29.69,NNW,338,2.0,15.0,74,0.00,,,0.00,VWS V14.01,2013-05-10 03:12:00,
2013-05-09 20:17:00,52.7,44.7,29.69,NNW,337,4.0,15.0,74,0.00,,,0.00,VWS V14.01,2013-05-10 03:17:00,
2013-05-09 20:22:00,52.5,44.8,29.69,NNW,337,1.0,15.0,75,0.00,,,0.00,VWS V14.01,2013-05-10 03:22:00,
2013-05-09 20:27:00,52.3,44.6,29.69,North,349,3.0,15.0,75,0.00,,,0.00,VWS V14.01,2013-05-10 03:27:00,
2013-05-09 20:30:00,54.0,45.9,29.65,NNW,338,3.0,7.0,74,0.00,,,0.00,VWS V14.01,2013-05-10 03:30:00,
2013-05-09 20:32:00,52.3,44.6,29.69,NNW,347,3.0,15.0,75,0.00,,,0.00,VWS V14.01,2013-05-10 03:32:00,
2013-05-09 20:37:00,52.2,44.5,29.70,NNW,347,2.0,15.0,75,0.00,,,0.00,VWS V14.01,2013-05-10 03:37:00,
2013-05-09 20:42:00,52.1,44.8,29.70,NNW,344,4.0,15.0,76,0.00,,,0.00,VWS V14.01,2013-05-10 03:42:00,
2013-05-09 20:47:00,52.0,44.7,29.70,NNW,344,2.0,15.0,76,0.00,,,0.00,VWS V14.01,2013-05-10 03:47:00,
2013-05-09 20:52:00,51.8,44.5,29.70,NNW,343,3.0,15.0,76,0.00,,,0.00,VWS V14.01,2013-05-10 03:52:00,
2013-05-09 20:57:00,51.8,44.5,29.70,NNW,342,2.0,15.0,76,0.00,,,0.00,VWS V14.01,2013-05-10 03:57:00,
2013-05-09 21:00:00,53.4,45.7,29.65,North,0,2.0,7.0,75,0.00,,,0.00,VWS V14.01,2013-05-10 04:00:00,
2013-05-09 21:02:00,51.8,44.5,29.70,NNW,342,1.0,15.0,76,0.00,,,0.00,VWS V14.01,2013-05-10 04:02:00,
2013-05-09 21:07:00,51.7,44.4,29.71,NNW,342,1.0,15.0,76,0.00,,,0.00,VWS V14.01,2013-05-10 04:07:00,
2013-05-09 21:12:00,51.5,44.5,29.71,NNW,342,2.0,15.0,77,0.00,,,0.00,VWS V14.01,2013-05-10 04:12:00,
2013-05-09 21:17:00,51.4,44.4,29.71,NNW,342,2.0,15.0,77,0.00,,,0.00,VWS V14.01,2013-05-10 04:17:00,
2013-05-09 21:22:00,51.4,44.4,29.72,NNW,342,0.0,15.0,77,0.00,,,0.00,VWS V14.01,2013-05-10 04:22:00,
2013-05-09 21:27:00,51.3,44.3,29.72,NNW,342,1.0,15.0,77,0.00,,,0.00,VWS V14.01,2013-05-10 04:27:00,
2013-05-09 21:30:00,52.8,45.1,29.67,NNW,338,2.0,9.0,75,0.00,,,0.00,VWS V14.01,2013-05-10 04:30:00,
2013-05-09 21:32:00,51.2,44.2,29.71,NNW,342,2.0,15.0,77,0.00,,,0.00,VWS V14.01,2013-05-10 04:32:00,
2013-05-09 21:37:00,51.0,44.0,29.72,NNW,342,2.0,15.0,77,0.00,,,0.00,VWS V14.01,2013-05-10 04:37:00,
2013-05-09 21:42:00,51.0,44.4,29.71,NNW,342,0.0,15.0,78,0.00,,,0.00,VWS V14.01,2013-05-10 04:42:00,
2013-05-09 21:47:00,51.0,44.4,29.72,NNW,342,0.0,15.0,78,0.00,,,0.00,VWS V14.01,2013-05-10 04:47:00,
2013-05-09 21:52:00,51.0,44.4,29.72,NNW,342,2.0,15.0,78,0.00,,,0.00,VWS V14.01,2013-05-10 04:52:00,
2013-05-09 21:57:00,51.0,44.4,29.72,NNW,342,2.0,15.0,78,0.00,,,0.00,VWS V14.01,2013-05-10 04:57:00,
2013-05-09 22:00:00,52.2,45.2,29.68,NW,315,2.0,8.0,77,0.00,,,0.00,VWS V14.01,2013-05-10 05:00:00,
2013-05-09 22:02:00,51.1,44.5,29.72,NNW,342,3.0,15.0,78,0.00,,,0.00,VWS V14.01,2013-05-10 05:02:00,
2013-05-09 22:07:00,51.0,44.4,29.72,NNW,342,2.0,15.0,78,0.00,,,0.00,VWS V14.01,2013-05-10 05:07:00,
2013-05-09 22:12:00,51.0,44.4,29.72,NNW,341,1.0,15.0,78,0.00,,,0.00,VWS V14.01,2013-05-10 05:12:00,
2013-05-09 22:17:00,51.0,44.7,29.72,NNW,341,1.0,15.0,79,0.00,,,0.00,VWS V14.01,2013-05-10 05:17:00,
2013-05-09 22:22:00,50.8,44.5,29.72,NNW,341,2.0,15.0,79,0.00,,,0.00,VWS V14.01,2013-05-10 05:22:00,
2013-05-09 22:27:00,50.9,44.6,29.72,NNW,341,1.0,15.0,79,0.00,,,0.00,VWS V14.01,2013-05-10 05:27:00,
2013-05-09 22:30:00,52.0,45.0,29.69,NNW,338,2.0,6.0,77,0.00,,,0.00,VWS V14.01,2013-05-10 05:30:00,
2013-05-09 22:32:00,50.8,44.5,29.72,NNW,341,1.0,15.0,79,0.00,,,0.00,VWS V14.01,2013-05-10 05:32:00,
2013-05-09 22:37:00,50.6,44.3,29.73,NNW,341,3.0,15.0,79,0.00,,,0.00,VWS V14.01,2013-05-10 05:37:00,
2013-05-09 22:42:00,50.5,44.6,29.73,NNW,341,2.0,15.0,80,0.00,,,0.00,VWS V14.01,2013-05-10 05:42:00,
2013-05-09 22:47:00,50.5,44.6,29.73,NNW,345,0.0,15.0,80,0.00,,,0.00,VWS V14.01,2013-05-10 05:47:00,
2013-05-09 22:52:00,50.4,44.8,29.72,North,358,1.0,15.0,81,0.00,,,0.00,VWS V14.01,2013-05-10 05:52:00,
2013-05-09 22:57:00,50.4,44.8,29.73,North,356,1.0,15.0,81,0.00,,,0.00,VWS V14.01,2013-05-10 05:57:00,
2013-05-09 23:00:00,52.0,45.0,29.69,NNW,338,2.0,7.0,77,0.00,,,0.00,VWS V14.01,2013-05-10 06:00:00,
2013-05-09 23:02:00,50.4,44.8,29.73,North,355,0.0,15.0,81,0.00,,,0.00,VWS V14.01,2013-05-10 06:02:00,
2013-05-09 23:07:00,50.3,44.7,29.73,North,355,1.0,15.0,81,0.00,,,0.00,VWS V14.01,2013-05-10 06:07:00,
2013-05-09 23:12:00,50.3,44.7,29.73,North,355,0.0,15.0,81,0.00,,,0.00,VWS V14.01,2013-05-10 06:12:00,
2013-05-09 23:17:00,50.2,44.6,29.73,North,355,0.0,15.0,81,0.00,,,0.00,VWS V14.01,2013-05-10 06:17:00,
2013-05-09 23:22:00,50.1,44.8,29.74,North,355,0.0,15.0,82,0.00,,,0.00,VWS V14.01,2013-05-10 06:22:00,
2013-05-09 23:27:00,50.1,44.8,29.74,North,355,0.0,15.0,82,0.00,,,0.00,VWS V14.01,2013-05-10 06:27:00,
2013-05-09 23:30:00,51.9,44.9,29.70,North,0,1.0,6.0,77,0.00,,,0.00,VWS V14.01,2013-05-10 06:30:00,
2013-05-09 23:32:00,50.1,44.8,29.73,North,355,1.0,15.0,82,0.00,,,0.00,VWS V14.01,2013-05-10 06:32:00,
2013-05-09 23:37:00,50.2,44.9,29.73,North,355,4.0,15.0,82,0.00,,,0.00,VWS V14.01,2013-05-10 06:37:00,
2013-05-09 23:42:00,50.1,44.8,29.73,North,353,1.0,15.0,82,0.00,,,0.00,VWS V14.01,2013-05-10 06:42:00,
2013-05-09 23:47:00,50.2,44.9,29.73,North,352,4.0,15.0,82,0.00,,,0.00,VWS V14.01,2013-05-10 06:47:00,
2013-05-09 23:52:00,50.2,44.9,29.74,NNW,341,1.0,15.0,82,0.00,,,0.00,VWS V14.01,2013-05-10 06:52:00,
2013-05-09 23:57:00,50.3,45.0,29.74,NNW,341,2.0,15.0,82,0.00,,,0.00,VWS V14.01,2013-05-10 06:57:00,